Flag for Netherlands Weather past 2 weeks in Rotterdam, Netherlands

Now
46 °F

Partly sunny.


Feels Like: 39 °F
Forecast: 39 / 47 °F
Wind: 20 mph from West

Location: Rotterdam Zestienhoven Airport

Current Time: Apr 1, 2015 at 8:17:33 PM

Latest Report: Apr 1, 2015 at 7:55 PM


Visibility: N/A

Pressure: 30.07 "Hg

Humidity: 66%

Dew point: 36 °F

Location of RotterdamLocation

Historic Weather in Rotterdam — Graph

°F

Rotterdam temperature yesterday

Maximum temperature yesterday: 52 °F (at 9:55 AM)
Minimum temperature yesterday: 37 °F (at 7:25 PM)
Average temperature yesterday: 48 °F

Past Weeks' High & Low Weather Summary

 TemperatureHumidityPressure
High59 °F (Mar 17, 5:25 PM)100% (Mar 17, 11:25 PM)30.42 "Hg (Mar 17, 11:25 PM)
Low30 °F (Mar 23, 5:25 AM)55% (Mar 17, 5:25 PM)29.21 "Hg (Mar 29, 4:55 PM)
Average44 °F83%29.96 "Hg
* Reported Mar 17 5:25 PM — Apr 1 6:55 PM, Rotterdam, Weather by CustomWeather, © 2015

Note: Actual official high and low records may vary slightly from our data, if they occured in-between our weather recording intervals... More about our weather records

Advertising

Rotterdam weather history for previous 24 hours

 ConditionsComfort  
Time TempWeatherWind HumidityBarometerVisibility
6:55 PM
Wed, Apr 1
48 °FPassing clouds.18 mph62%30.07 "HgN/A
6:25 PM48 °FClear.20 mph62%30.09 "HgN/A
5:55 PM48 °FClear.23 mph66%30.09 "HgN/A
5:25 PM48 °FCool.24 mph62%30.09 "HgN/A
4:55 PM48 °FClear.23 mph62%30.09 "HgN/A
4:25 PM48 °FPassing clouds.25 mph62%30.09 "HgN/A
3:55 PM48 °FCloudy.25 mph66%30.09 "HgN/A
3:25 PM46 °FScattered clouds.26 mph71%30.09 "HgN/A
2:55 PM46 °FPartly sunny.23 mph66%30.09 "HgN/A
2:25 PM48 °FBroken clouds.26 mph62%30.09 "HgN/A
1:55 PM46 °FPartly sunny.29 mph66%30.09 "HgN/A
1:25 PM46 °FMore clouds than sun.25 mph66%30.09 "HgN/A
12:55 PM45 °FBroken clouds.21 mph71%30.09 "HgN/A
12:25 PM45 °FBroken clouds.24 mph71%30.09 "HgN/A
11:55 AM43 °FBroken clouds.23 mph71%30.07 "HgN/A
11:25 AM43 °FCloudy.23 mph76%30.07 "HgN/A
10:55 AM45 °FCloudy.21 mph71%30.07 "HgN/A
10:25 AM43 °FDrizzle. More clouds than sun.25 mph76%30.04 "Hg6 mi
9:55 AM43 °FBroken clouds.26 mph76%30.04 "HgN/A
9:25 AM41 °FDrizzle. Broken clouds.18 mph81%30.04 "HgN/A
8:55 AM39 °FSprinkles. Broken clouds.21 mph93%30.01 "Hg2 mi
8:25 AM41 °FBroken clouds.21 mph81%30.01 "HgN/A
7:55 AM41 °FDrizzle. Overcast.20 mph81%29.98 "HgN/A
7:25 AM41 °FLight rain. Partly cloudy.24 mph76%29.98 "HgN/A
6:55 AM41 °FPassing clouds.23 mph76%29.95 "HgN/A
6:25 AM41 °FPassing clouds.26 mph76%29.95 "HgN/A
5:55 AM41 °FPassing clouds.22 mph76%29.95 "HgN/A
5:25 AM43 °FPartly cloudy.26 mph71%29.92 "HgN/A
4:55 AM43 °FPartly cloudy.29 mph66%29.92 "HgN/A
4:25 AM43 °FPartly cloudy.29 mph66%29.92 "HgN/A
3:55 AM43 °FPassing clouds.29 mph66%29.89 "HgN/A
3:25 AM41 °FOvercast.28 mph70%29.89 "HgN/A
2:55 AM43 °FOvercast.25 mph66%29.89 "HgN/A
2:25 AM41 °FPassing clouds.25 mph70%29.89 "HgN/A
1:55 AM43 °FOvercast.28 mph66%29.86 "HgN/A
1:25 AM43 °FPartly cloudy.26 mph66%29.86 "HgN/A
12:55 AM43 °FPassing clouds.26 mph66%29.86 "HgN/A
12:25 AM43 °FPassing clouds.29 mph66%29.83 "HgN/A
11:55 PM
Tue, Mar 31
43 °FPassing clouds.23 mph71%29.83 "HgN/A
11:25 PM43 °FClear.28 mph66%29.83 "HgN/A
10:55 PM45 °FPassing clouds.23 mph61%29.83 "HgN/A
10:25 PM45 °FClear.22 mph66%29.80 "HgN/A
9:55 PM43 °FQuite cool.20 mph76%29.80 "HgN/A
9:25 PM43 °FClear.23 mph76%29.80 "HgN/A
8:55 PM41 °FClear.16 mph81%29.80 "HgN/A
8:25 PM43 °FThunderstorms. Scattered clouds.15 mph81%29.80 "HgN/A
Weather by CustomWeather, © 2015

See weather overviewHow to use our weather pages